LiveATC.Net - Listen to live air traffic control over the Internet!


ICAO: MMAN  IATA: NTR   Airport: Aeropuerto Internacional del Norte
City: Monterrey
Country: Mexico   Continent: North America
MMAN METAR Weather: MMAN 270140Z 28003KT 5SM -RA SCT015 BKN020 OVC070 21/21 A3008 RMK 60045 8/57/
MMAN Flight Activity (FlightAware)
MMAN Tower
Feed Status: UP   Listeners: 0
Listen right in your browser - requires Flash (in browser, requires Flash)
Click here to listen with your own player (launches your MP3 player)
MMAN Tower Audio Archives
FacilityFrequency
Monterrey Tower118.600


NOTICE

Unauthorized use prohibited. See LiveATC.net Terms of Service


Find LiveATC Audio Streams


Airport/ARTCC Code

Frequency
(e.g., 124.400, 128.75)
Site-wide search

Browse LiveATC Feeds
LiveATC Coverage Map
Top 50 LiveATC Feeds
Bad Weather Areas

LiveATC FAQ
Offer a LiveATC Feed
Contact LiveATC.net
Press Inquiries

LiveATC on iPhone
LiveATC on Android

Windows Phone
Windows 8/10

LiveATC Mobile
(Mobile browser)

ATC Audio Archives
Interesting Recordings

LiveATC Forums


Home Page
About LiveATC.net
Make a Donation
LiveATC Store

Terms of Use
Privacy Policy

Canadian Air Freqs

AIRMETs/SIGMETs

FAA Airport Status
Nat'l Airspace Status
Arrival Demand Charts


Server Software By:
Icecast.org
Liquidsoap